CAPE
3415 3073 3032 2760 2524 2442 2206 1766 1381 1277 1160 1233 1382 1506 1456 1762 1719 1678 1750 1893 1943 2066 2109 2545 2739 2512 1672 1614 2134 2157 1879 1793 1881 1876 1720 1634 1565 1450 1059 884 836 809
3439 3100 2776 2571 2565 2603 2433 1909 1594 1162 1203 1342 1296 1619 1840 1863 1745 1703 1781 1798 1873 1985 1993 2561 3047 2645 2046 1515 1662 1774 1596 1380 1527 1287 1408 1419 1419 1420 1176 1059 1032 916
3382 3228 3124 2602 2247 2567 2230 2192 1792 1412 1096 1015 910 1115 1500 1685 1540 1797 1804 1785 1809 1799 2199 2615 2772 2815 2448 2214 1990 1914 1487 1579 1495 1282 1591 1838 1991 1824 2107 1787 1434 1042
3404 3032 2622 2388 2076 1921 2087 2165 2068 1772 1350 980 848 988 1186 1405 1417 1619 1965 2100 1792 1657 1724 2089 2387 2605 2990 2263 2515 2690 2203 2554 2318 2451 2322 2324 2371 2434 2455 2198 1996 1487
3068 3005 2673 2476 2375 2199 2082 2030 1804 1748 1522 1213 935 816 963 1410 1566 1452 1632 1956 2272 2123 2205 2264 2868 2730 2891 2819 2421 2235 2136 1855 1868 2060 2256 2580 2522 2368 2234 2142 2428 2311
2889 2952 2889 2587 2518 2381 2007 1982 1861 1533 1439 1390 1254 863 866 1157 1281 1202 1328 1518 1617 2003 1988 2669 2704 2842 2546 2629 2343 2322 2272 1804 1798 2206 2154 2328 2254 2301 2419 2447 2559 2396
2406 2754 2704 2498 2379 2213 1904 1904 1852 1916 1612 1470 1410 1212 1018 997 1163 1218 1259 1245 1258 1215 2069 2784 3157 2812 2189 2547 2391 2516 2342 2296 2015 2155 2249 1914 1690 1725 1546 2014 2165 2325
2501 2420 2606 2374 2136 2149 1985 1745 1899 1956 1666 1766 1668 1628 1520 1266 1315 1232 1229 1318 1281 1437 1977 2548 3295 3516 2845 2453 2437 2458 2398 2228 2198 2330 2387 2145 2041 1984 2239 2377 2070 2196
2827 2703 2882 2782 2026 1886 1752 1672 1816 1939 1975 1937 1955 1983 2084 2026 1891 1771 1992 2286 2374 2702 3024 2983 3093 3149 2872 2763 2575 2600 2367 2001 1890 1958 2106 2080 1884 2005 2268 2338 2042 2083
3110 3042 3122 3005 2230 1826 1967 1974 2025 2075 2146 2230 2407 2691 2634 3077 2871 2340 2640 3236 3105 2985 3036 3045 3128 3110 2895 2948 2750 2456 2198 2167 2278 2143 1776 1563 1690 1751 1774 1782 2009 2256
3159 3240 3387 3320 2370 1944 2307 2542 2369 2270 2622 2905 2928 3010 3468 3212 2727 2600 2678 3197 3022 2945 2957 3047 2960 3052 3049 2904 2638 2339 2251 1963 1966 1975 1932 1900 1884 2000 1912 1845 1881 1905
2970 2886 3079 3531 3258 2658 3016 3349 3161 2926 2863 2925 2977 3312 3420 3087 2993 2980 2656 2709 2955 2904 2858 3064 3244 3126 3052 2793 2626 2458 2199 1803 1730 1734 1653 1583 1910 1788 1899 2019 1906 1905
2803 2930 3059 3652 3995 3715 3780 4089 4148 3885 3468 3221 3251 3499 3594 3521 3148 3226 3167 3104 3225 3117 3113 3096 3154 2952 2844 2924 2814 2738 2327 2096 1975 1909 1876 1937 1924 1775 1626 1580 1552 1491
2205 2751 3254 3346 3407 3511 3597 3867 3718 3530 3653 3642 3649 3603 3607 3427 3242 3143 3013 3092 3036 2723 2619 2572 2471 2520 2260 2531 2316 2363 1996 1974 2046 1870 1815 1780 1673 1766 1741 1745 1728 1635
2751 2736 3196 3328 3175 2842 2956 3256 3171 3170 3298 3496 3390 3429 3100 3173 3107 3056 2928 2750 2532 2530 2383 2318 2174 2095 2188 2095 2087 2137 2051 1931 1939 1826 1764 1651 1697 1928 1934 1904 1898 1723
2737 2910 3237 3294 3242 3083 2928 3100 3342 3146 3134 3208 3198 3006 3030 2875 3029 2776 2695 2557 2493 2233 2195 2156 1995 2053 1760 1350 1361 2154 2324 2377 2198 2249 2230 2309 2366 2302 2242 2301 2188 2121
2664 2900 2904 3158 2782 2821 2850 3117 3145 3145 3008 2747 2790 2814 2985 2889 2419 2504 2466 2422 2072 2006 2002 1973 1833 1934 1625 1092 958 924 1897 2474 2283 2408 2594 2289 2354 2451 2316 2452 2440 2506
2725 2790 2874 3053 2831 2676 2953 3045 3063 2900 2843 2822 2727 2689 2759 2492 2131 2235 2130 2086 2011 1985 2104 2071 2182 1384 1022 886 899 965 1269 1852 2101 1986 2226 2214 2137 2106 2196 2261 2353 2424
2865 3022 3116 2959 2747 2853 2797 2854 2905 2788 2733 2759 2726 2690 2344 2196 2216 2105 2051 1956 1914 1805 1807 1497 1586 1087 953 1081 1152 1166 1140 1209 1920 1877 2108 2108 1949 2085 2215 2208 2238 2278
3157 3078 3050 2908 2835 2890 2815 2811 2725 2682 2687 2709 2557 2410 2209 2187 2010 2024 2160 2091 1835 1734 2003 1667 1802 1061 1185 1155 1046 1119 1000 943 2155 2027 2064 2079 2304 2213 2272 2298 2291 2294
3229 3136 2940 3061 2972 2708 2641 2732 2797 2603 2617 2530 2214 2034 2088 2219 1969 1808 1938 1884 1848 1770 1599 1740 1484 1170 920 960 1010 982 1016 1203 2316 2050 1952 1771 1219 1235 1203 1229 1273 1186
3270 3115 3222 3016 2810 2834 2674 2558 2471 2571 2442 2191 2134 2276 2129 2002 2090 2152 2118 2135 1942 1772 1676 1871 863 884 1051 1194 1155 1012 980 1413 1490 1104 825 896 814 895 885 948 1003 1128
3421 3384 3289 3018 2922 2705 2513 2510 2377 2354 2266 2206 2316 2185 2080 1952 1858 2166 2303 2037 2048 1976 1877 1684 1152 1313 1238 1089 791 665 893 1046 659 533 565 580 648 733 720 735 819 885
3460 3300 3052 2968 2486 2399 2518 2396 2408 2345 2474 2280 2179 2124 2065 2033 2056 2114 2088 1991 2138 2179 2396 1943 1240 1050 861 623 434 384 1049 715 676 478 574 565 677 636 567 540 524 278
2867 2813 2905 2813 2666 2545 2542 2480 2576 2380 2436 2379 2273 2220 2156 1983 1880 2052 2429 2418 2255 2310 1847 1517 937 620 492 261 0 228 1305 921 804 869 633 602 605 477 460 431 361 550
2981 2957 2901 2700 2657 2577 2636 2502 2442 2495 2299 2402 2325 2329 2099 2312 2044 2443 2476 2422 2790 2483 1658 1495 1001 461 245 0 0 202 524 1810 948 634 650 549 532 334 258 240 358 324
Wind_Speed
5 6 7 7 6 6 5 4 4 5 5 4 6 6 6 6 6 5 4 5 8 7 8 9 9 9 9 10 11 11 10 10 10 11 11 12 11 10 11 11 10 11
6 6 7 7 7 6 5 3 4 5 8 7 4 5 6 6 7 7 5 5 8 9 9 10 11 11 10 10 13 12 12 12 12 12 14 14 11 10 11 10 10 11
5 6 5 4 4 5 4 5 5 7 8 8 9 7 6 7 7 8 7 7 7 8 12 12 11 11 10 11 12 12 12 11 10 11 13 13 12 11 12 13 13 13
4 3 3 2 3 3 5 6 9 9 8 9 8 8 8 6 7 8 9 10 9 11 11 11 12 14 18 20 19 18 16 15 16 17 15 14 14 15 16 16 15 14
4 3 3 4 5 5 5 6 7 9 9 8 7 7 7 8 8 7 10 12 13 11 14 14 17 19 20 20 20 20 20 18 17 16 15 14 14 14 15 16 16 16
6 5 5 5 7 7 7 7 7 8 8 8 8 8 9 11 10 9 8 10 12 14 14 20 20 20 21 21 20 20 20 19 17 17 17 16 15 15 18 18 18 18
8 8 7 8 8 8 7 7 8 7 8 8 8 9 10 10 11 9 9 11 11 12 17 22 21 20 21 22 21 20 20 19 18 20 19 18 17 16 16 17 18 18
9 10 10 10 10 11 9 8 9 8 8 8 7 9 9 9 8 9 10 11 11 15 16 20 23 24 24 24 23 23 23 22 22 22 21 19 19 19 20 21 21 20
9 10 12 12 12 13 10 10 10 9 9 9 9 10 11 10 10 11 11 10 12 15 18 19 21 23 24 23 23 23 22 21 21 20 20 19 19 20 21 22 21 21
10 10 12 13 12 12 10 10 10 10 9 9 10 12 13 15 15 14 14 15 16 16 17 19 20 21 22 22 22 22 21 20 19 19 18 18 19 20 22 23 23 23
11 11 12 12 12 12 11 11 9 9 11 11 13 13 15 14 14 15 15 16 16 16 16 16 17 19 21 22 21 21 21 19 19 19 19 19 20 21 23 23 23 22
11 9 10 12 13 14 13 12 12 12 12 12 13 14 14 14 13 13 13 14 15 15 14 14 16 18 19 20 20 21 22 21 20 19 18 19 19 20 21 22 22 22
10 10 13 14 15 14 15 15 15 15 14 14 15 15 13 12 12 11 12 13 13 13 13 14 16 16 17 19 20 20 20 21 21 20 19 19 19 18 18 18 18 18
11 13 14 15 14 14 15 15 15 15 16 17 18 16 14 12 12 11 11 11 11 12 13 14 15 15 15 16 18 18 18 18 18 18 17 17 16 14 13 13 14 15
10 12 14 16 15 15 15 14 15 16 16 18 17 16 13 12 11 10 10 10 11 11 12 14 15 15 16 16 17 18 17 17 17 16 15 15 14 13 13 13 15 15
13 13 16 16 14 15 15 15 16 16 16 16 15 13 10 9 10 10 10 11 12 13 13 14 15 16 16 16 15 16 18 17 17 16 16 15 14 13 13 14 15 15
15 15 14 14 14 15 15 15 15 15 14 14 12 11 10 10 11 12 13 13 13 13 14 14 15 18 24 22 18 14 14 17 16 15 15 15 14 14 12 12 13 13
18 17 14 14 15 16 16 16 15 15 15 14 13 12 12 14 14 13 14 14 14 14 13 15 17 24 24 25 22 18 15 15 16 15 14 14 13 12 12 12 11 12
19 16 14 15 15 15 16 15 14 14 14 15 16 15 16 15 16 17 17 16 16 15 16 16 19 24 25 22 21 18 16 13 17 16 14 14 13 12 12 12 12 12
16 15 14 14 15 15 15 14 12 13 15 16 17 18 17 19 20 18 18 16 16 17 18 18 20 22 23 21 19 16 13 12 16 16 14 13 13 13 13 13 13 13
15 15 15 15 15 15 16 14 14 15 16 17 17 18 19 20 19 17 16 16 16 17 18 19 21 22 19 17 16 12 12 12 15 16 16 16 15 14 14 14 13 13
15 15 15 14 14 15 14 14 15 16 18 18 17 17 18 18 16 16 16 16 16 17 18 21 21 19 16 14 12 12 11 14 16 16 16 16 16 16 15 15 14 13
14 14 15 15 15 14 13 14 16 18 18 17 17 16 16 16 15 15 16 16 16 16 17 21 20 16 14 14 11 8 8 15 15 17 17 17 17 16 15 16 16 16
13 13 13 14 13 13 14 16 17 17 17 16 17 16 15 15 16 16 16 15 15 16 18 21 19 16 15 13 10 8 5 16 18 19 19 18 19 19 19 19 21 24
13 11 12 13 15 16 16 17 17 16 16 15 15 15 15 16 16 16 15 15 16 19 22 21 19 17 16 13 nan 9 8 18 18 20 20 20 20 21 22 22 22 26
13 14 15 16 16 16 16 16 16 16 16 15 15 14 15 15 15 15 16 16 16 18 19 20 19 18 18 nan nan 12 11 13 20 19 21 22 22 22 23 25 27 26
Wind_Direction
286 274 272 269 266 259 256 278 281 296 285 267 283 300 312 310 309 306 315 302 304 309 311 313 314 314 310 307 302 298 294 288 277 277 274 263 271 277 281 286 286 280
290 275 259 257 258 258 259 251 275 270 283 289 285 293 308 316 321 318 314 309 312 317 311 313 318 324 324 316 311 310 304 303 306 296 297 300 295 293 289 283 279 274
290 286 291 301 291 303 308 293 277 282 290 304 323 334 338 328 323 309 302 303 301 301 307 313 313 311 316 301 288 285 284 284 292 286 270 266 264 267 266 264 272 274
296 294 298 309 285 282 290 290 293 293 298 310 328 334 333 320 301 300 304 305 304 304 303 304 303 292 281 283 285 282 278 278 279 269 270 271 271 269 270 273 267 261
284 285 268 263 263 273 269 281 296 300 307 311 324 327 316 305 298 311 315 313 308 306 303 300 295 299 298 291 292 293 292 289 285 284 283 282 280 284 284 283 282 280
268 268 278 277 277 280 286 294 297 301 306 314 322 313 309 307 313 321 319 311 309 306 302 296 302 300 298 295 293 291 289 289 291 296 296 291 284 282 283 285 288 291
271 276 288 285 289 290 289 288 289 299 313 319 306 302 297 302 310 316 312 309 307 300 299 302 303 301 298 298 299 298 294 291 288 290 291 288 286 283 281 283 287 289
270 270 272 275 284 287 293 294 297 305 322 327 318 291 282 293 306 307 307 309 311 311 310 306 305 306 307 305 306 307 304 297 295 295 292 287 283 282 282 280 278 281
271 268 269 273 276 281 293 296 300 310 318 325 310 289 292 300 303 301 293 290 295 298 303 304 306 307 305 305 305 306 305 301 298 296 293 289 286 283 281 280 280 281
269 267 269 271 273 274 282 286 291 309 314 309 294 290 290 288 287 286 284 293 303 307 310 308 306 306 306 306 306 306 306 305 302 300 296 291 284 279 277 277 280 281
259 258 261 265 266 264 270 273 285 284 281 284 285 287 289 289 288 287 292 300 306 310 312 312 311 311 312 310 308 306 307 304 301 298 295 292 288 285 283 283 285 287
237 244 253 260 258 259 265 272 275 276 280 283 287 291 290 290 290 290 294 299 303 308 313 315 315 314 312 311 310 308 306 306 306 304 298 294 292 292 293 292 292 291
221 231 231 244 257 262 266 272 278 282 285 286 286 288 291 292 295 296 293 293 299 305 310 313 314 315 313 312 310 309 310 310 310 309 306 301 302 303 304 303 305 306
217 225 239 250 258 266 275 278 283 283 281 280 280 284 289 293 296 297 294 299 306 310 308 307 311 312 314 314 315 315 316 317 316 315 312 308 308 311 312 312 313 313
242 235 242 251 260 271 280 286 287 287 286 284 282 284 289 294 298 299 309 315 309 302 304 307 309 312 309 312 313 315 315 317 315 314 310 309 314 318 316 313 311 313
266 250 248 255 264 273 280 285 286 287 288 287 288 291 295 297 301 308 311 309 308 305 304 305 305 304 308 307 300 301 311 310 308 308 312 313 311 308 308 312 315 318
266 262 257 261 269 272 280 287 289 291 294 294 295 298 301 303 301 305 305 308 307 305 306 304 302 294 288 288 291 290 306 314 312 312 310 308 309 313 312 311 312 314
276 279 278 278 277 281 282 286 290 296 297 297 296 299 300 299 297 299 300 298 301 305 307 303 298 286 285 287 290 292 296 307 311 309 306 307 312 314 313 312 312 314
276 287 290 284 282 281 281 287 293 295 298 298 298 297 295 296 297 296 297 299 301 303 301 299 295 288 290 294 293 298 302 315 312 312 315 317 315 316 315 315 316 319
283 287 285 281 279 279 282 290 297 303 296 289 286 288 291 293 292 292 291 292 293 295 295 299 293 290 295 298 301 302 314 324 316 313 313 308 309 312 312 314 318 321
280 282 280 275 278 281 282 286 293 297 296 286 285 288 291 290 290 291 292 295 295 295 296 296 289 287 287 290 297 310 322 341 312 309 308 310 309 305 307 308 312 314
273 280 281 282 283 285 289 292 292 294 292 287 289 288 287 286 284 287 291 290 290 293 296 291 283 273 283 292 306 322 333 318 303 305 304 303 301 300 303 306 309 303
274 278 276 279 281 284 292 294 294 294 293 293 291 288 286 284 285 284 287 290 295 302 301 293 288 283 286 288 289 290 320 306 304 301 299 296 297 300 306 306 303 298
265 266 272 275 283 289 293 297 297 296 292 289 285 284 282 281 281 284 290 298 307 304 298 295 294 285 278 278 277 282 291 299 302 298 299 299 302 304 303 303 300 304
257 264 274 280 284 289 292 298 297 290 283 279 276 277 278 280 285 289 297 302 299 297 294 295 294 289 279 276 nan 279 291 300 296 298 298 297 298 297 297 297 294 299
259 272 278 281 283 288 292 291 286 281 279 277 278 279 282 285 291 294 297 295 296 298 295 292 293 290 277 nan nan 268 264 285 294 292 293 293 293 293 296 292 289 288